Wind_Speed
69 68 65 63 62 60 58 58 56 53 52 51 53 56 55 56 59 60 61 63 64 68 71 73 75 76 77 76 76 76 76 75 74 78 78 78 78 76 73 71 69 68 68
72 74 74 72 70 67 66 64 63 62 59 57 54 54 57 56 57 59 62 64 64 65 68 71 74 76 77 77 78 79 80 79 78 81 81 82 81 82 79 77 75 72 73
73 76 80 80 78 76 73 71 69 67 67 66 63 61 59 60 58 60 61 64 65 66 67 69 73 75 77 78 78 79 80 82 80 81 85 85 85 86 84 82 81 79 78
77 79 80 84 85 84 82 79 76 74 73 72 71 70 68 66 63 62 61 63 65 67 68 69 70 73 75 78 78 79 81 81 82 81 85 87 86 88 89 87 85 85 83
81 82 84 85 88 91 90 88 86 83 80 78 77 76 75 75 71 71 68 67 66 68 70 70 71 73 74 76 78 80 80 81 81 82 82 87 90 89 90 90 88 89 87
87 86 86 87 89 92 95 96 94 92 89 86 84 82 81 80 77 78 77 75 73 71 71 73 73 75 75 77 76 79 82 82 82 83 84 84 88 93 94 94 92 90 90
88 88 90 91 92 94 96 98 100 99 98 96 92 89 88 86 82 83 80 82 82 80 78 76 76 78 78 78 79 80 82 84 85 86 87 88 88 90 93 94 95 95 93
92 92 92 94 95 95 97 98 102 103 104 103 101 99 96 93 89 87 87 87 87 86 86 86 84 82 83 81 82 83 84 85 88 89 90 91 91 92 95 97 97 96 95
94 95 96 96 97 97 98 99 101 105 106 107 108 107 105 103 98 95 94 93 91 91 91 91 91 92 91 86 87 87 87 88 89 90 91 93 95 97 98 98 99 100 99
91 93 94 95 96 98 99 101 101 102 106 109 110 112 111 109 108 105 103 102 100 97 96 97 97 95 95 95 96 95 93 94 93 92 95 97 98 100 101 101 101 101 102
93 91 91 93 95 98 99 101 103 103 104 107 111 113 114 113 114 113 111 110 108 106 105 104 103 102 102 102 101 100 99 100 100 101 100 101 101 102 104 106 106 105 105
92 91 92 93 95 97 98 101 102 105 106 106 108 111 115 117 117 118 118 117 116 115 114 112 111 110 109 109 108 107 106 105 105 105 106 106 106 106 107 108 109 110 109
88 89 89 90 93 96 99 101 103 104 106 109 110 110 112 115 117 120 121 122 123 122 121 121 120 118 117 116 116 115 114 114 112 112 111 111 112 112 112 112 112 112 112
84 84 86 88 90 93 97 100 103 104 106 108 110 112 114 115 117 120 122 125 127 127 127 127 126 126 125 125 124 124 123 122 121 120 119 119 118 118 118 118 117 118 117
83 83 83 84 85 88 92 96 101 105 106 108 109 111 113 115 118 119 122 123 125 127 129 131 132 132 132 132 132 132 132 131 130 129 128 127 126 125 125 125 125 124 123
80 81 82 83 84 84 86 89 93 100 104 108 110 111 112 114 116 118 119 121 124 125 127 129 132 134 136 137 138 138 138 138 138 137 137 135 134 134 133 133 132 132 131
73 76 78 80 82 84 85 86 88 91 96 102 106 110 112 114 115 116 118 120 122 124 126 128 129 132 135 137 139 140 142 143 143 143 143 143 143 142 141 140 140 139 138
66 68 70 73 77 80 83 85 87 88 90 92 96 101 106 110 114 116 118 119 121 122 124 125 128 130 132 134 137 138 140 142 144 146 147 148 148 148 148 147 147 146 146
60 61 63 67 69 72 76 79 82 86 89 90 92 94 96 100 104 108 112 116 119 121 124 125 127 129 130 132 133 134 136 139 140 141 143 144 147 148 149 150 151 151 151
52 54 57 59 62 65 68 72 75 79 82 85 89 92 94 97 100 102 105 108 110 113 115 117 119 122 124 125 127 129 131 134 136 138 139 141 142 143 143 144 145 146 147
47 48 49 50 52 55 59 63 67 71 74 78 81 84 88 91 94 97 100 103 105 107 109 112 115 117 118 118 119 121 122 123 125 126 128 130 132 135 137 139 140 141 142
42 44 47 49 50 53 55 58 61 64 68 72 75 78 81 85 87 89 91 94 97 99 101 103 105 107 109 111 113 115 116 117 119 120 121 122 123 124 125 126 127 128 129
38 39 40 43 47 49 52 55 58 61 64 67 70 74 76 80 82 85 87 89 91 93 94 96 98 100 101 103 104 105 107 108 109 110 110 111 112 112 114 115 118 119 119
37 40 42 44 46 48 50 53 55 58 61 63 66 68 70 72 75 77 80 82 84 86 88 89 91 92 93 95 97 98 98 100 101 103 104 105 106 107 108 108 109 110 110
34 36 38 39 41 43 46 49 51 54 57 59 62 64 66 69 71 73 75 76 78 79 81 82 83 84 85 86 88 89 89 90 91 92 94 95 97 98 99 101 102 103 103
32 34 36 39 41 42 44 47 49 51 53 56 58 61 62 65 67 68 70 71 71 72 73 75 77 77 78 79 80 81 82 83 83 84 84 85 87 87 87 88 89 89 90
Wind_Direction
256 253 252 253 255 254 254 253 252 253 255 255 255 252 249 246 244 242 242 242 242 243 243 243 243 243 244 245 243 243 242 241 241 243 243 243 245 246 247 249 251 253 255
255 252 251 251 250 251 252 252 252 251 250 251 253 252 251 249 246 245 243 242 242 243 245 245 245 245 245 244 244 243 241 242 242 243 244 244 244 247 248 250 251 252 255
256 253 251 249 248 248 248 250 251 250 250 250 250 249 251 251 251 249 246 244 243 242 243 245 246 246 245 244 243 243 242 242 242 243 246 247 246 247 248 250 252 253 255
256 253 251 249 248 246 247 247 248 249 250 249 249 249 249 249 250 250 250 248 246 245 244 243 245 247 247 245 244 243 243 243 244 244 244 248 249 248 249 251 252 252 255
257 254 252 250 247 246 245 245 245 246 247 248 248 248 248 248 248 250 250 250 250 249 246 245 244 245 246 247 246 246 245 244 245 245 245 246 249 250 251 251 252 254 255
258 256 253 252 249 247 246 244 243 244 244 245 247 247 248 248 247 249 250 250 250 250 249 248 247 246 246 246 247 247 246 245 245 245 245 246 248 251 252 253 254 254 256
258 257 256 253 251 249 247 245 244 243 244 243 244 245 247 248 247 248 248 250 251 250 250 250 250 249 248 248 247 247 247 246 246 246 246 247 248 250 252 254 255 256 257
258 257 256 255 253 251 249 247 244 244 243 243 243 243 244 244 246 248 248 249 249 250 251 251 251 251 250 249 249 249 248 248 247 247 247 248 248 249 250 252 253 255 256
259 257 255 254 253 252 251 249 247 245 243 243 243 243 243 244 244 244 245 247 249 250 251 251 251 252 252 252 252 251 252 251 251 251 250 249 249 250 250 251 253 255 256
262 259 256 254 252 251 250 250 249 247 246 245 244 244 244 244 244 244 245 246 246 246 249 250 251 251 252 252 253 252 253 254 254 254 253 252 251 251 253 253 252 254 255
263 260 257 254 252 251 250 249 249 249 246 245 245 244 245 245 244 245 245 246 246 247 248 248 248 250 251 252 253 253 252 253 254 253 254 254 254 254 253 254 254 254 255
263 260 257 255 253 251 251 249 248 248 248 247 246 246 246 246 246 246 246 246 246 247 247 248 248 250 251 251 251 253 253 253 253 255 255 256 256 256 256 256 257 257 256
263 262 259 255 253 251 250 249 248 248 248 247 248 247 247 246 247 247 248 248 247 247 247 248 248 249 250 251 251 252 253 254 253 254 254 255 256 256 257 257 258 258 258
263 262 260 258 255 251 248 248 249 249 248 248 248 248 248 248 248 248 248 249 249 249 248 248 248 249 250 250 251 252 253 253 253 253 254 254 255 256 257 258 258 258 258
262 261 260 259 257 255 253 251 249 249 249 249 249 250 250 250 250 250 250 250 250 250 251 251 250 250 250 251 252 252 253 253 254 254 255 255 255 256 256 257 258 258 259
261 259 258 258 257 256 255 253 252 251 250 250 251 251 251 251 251 252 252 252 252 252 252 252 252 252 252 252 252 252 253 254 255 255 256 255 256 256 256 257 258 259 259
260 260 258 257 256 256 256 255 254 252 251 251 251 252 252 253 253 253 254 254 254 254 254 253 254 253 253 253 254 254 255 254 254 255 256 257 257 257 257 257 257 258 259
259 258 257 257 256 255 255 255 255 255 254 253 252 252 253 254 255 255 256 256 256 256 256 256 256 256 256 256 255 255 256 256 256 256 256 256 257 257 258 258 258 259 259
260 259 258 257 257 257 256 256 255 255 256 256 256 255 255 255 254 254 255 256 257 258 258 258 258 258 258 258 258 258 258 258 259 259 260 260 260 259 259 259 259 259 259
261 260 259 258 258 258 258 257 257 257 256 257 257 258 258 258 258 258 257 257 257 258 259 259 259 260 260 260 261 261 261 260 260 260 261 261 262 262 262 262 262 262 262
263 262 263 263 262 260 259 258 258 258 259 259 259 258 259 259 259 260 261 261 261 261 261 261 262 262 263 263 263 263 263 263 263 262 262 261 261 262 262 262 261 261 261
263 262 261 260 261 261 261 260 260 259 259 259 259 259 259 260 261 261 262 263 263 264 264 264 264 264 264 264 264 264 264 263 263 263 263 262 262 263 262 262 262 262 261
268 270 269 266 265 265 265 266 266 266 265 265 265 264 264 263 264 264 265 265 265 266 266 266 266 266 266 266 266 266 266 266 266 266 266 266 265 264 263 263 263 263 263
270 271 272 271 272 271 271 270 270 270 269 269 270 270 269 269 268 268 267 266 267 267 267 267 267 266 267 267 267 266 266 266 266 266 266 266 266 266 266 266 265 265 265
281 281 282 280 279 277 276 275 274 273 273 272 272 271 270 270 269 269 269 269 269 269 269 269 268 268 268 268 268 269 268 267 267 266 266 266 265 265 264 264 264 264 264
282 282 283 283 284 283 282 282 281 280 279 278 277 276 276 275 274 273 273 273 272 271 271 271 271 270 270 269 269 269 270 270 269 268 267 267 267 266 266 265 265 264 263
Height
10628 10631 10634 10637 10638 10640 10642 10643 10645 10647 10649 10649 10650 10651 10652 10654 10657 10660 10662 10665 10670 10674 10678 10683 10688 10691 10696 10700 10704 10709 10714 10718 10725 10723 10729 10734 10739 10742 10746 10750 10754 10757 10758
10606 10608 10612 10615 10618 10621 10623 10626 10628 10630 10633 10634 10636 10637 10639 10640 10643 10645 10647 10649 10652 10656 10660 10665 10669 10673 10678 10681 10685 10689 10695 10700 10706 10708 10709 10714 10720 10722 10728 10733 10736 10740 10741
10581 10584 10588 10591 10596 10600 10603 10606 10609 10612 10615 10618 10620 10622 10623 10625 10628 10629 10632 10634 10636 10638 10642 10646 10650 10654 10659 10662 10666 10671 10675 10680 10685 10690 10688 10693 10699 10703 10708 10713 10717 10720 10721
10555 10558 10561 10565 10570 10575 10580 10584 10587 10590 10594 10597 10600 10603 10606 10608 10612 10613 10616 10618 10620 10622 10624 10627 10631 10635 10639 10643 10647 10651 10655 10660 10665 10670 10674 10672 10677 10681 10687 10692 10696 10697 10702
10527 10529 10533 10536 10541 10546 10551 10557 10562 10566 10569 10573 10577 10581 10584 10588 10595 10594 10598 10601 10603 10605 10607 10609 10612 10615 10618 10623 10628 10631 10635 10639 10643 10648 10653 10655 10654 10658 10663 10667 10674 10675 10682
10499 10502 10505 10507 10512 10517 10522 10528 10534 10539 10544 10548 10552 10556 10560 10564 10573 10574 10579 10581 10583 10586 10588 10591 10593 10595 10600 10601 10609 10611 10613 10617 10622 10626 10631 10636 10636 10634 10639 10644 10650 10657 10661
10469 10472 10475 10478 10481 10486 10491 10497 10504 10510 10516 10521 10526 10531 10535 10539 10550 10552 10559 10559 10561 10565 10567 10571 10574 10576 10579 10583 10585 10588 10592 10596 10600 10604 10609 10611 10616 10616 10617 10622 10626 10632 10638
10439 10441 10443 10446 10451 10456 10460 10465 10472 10478 10484 10492 10498 10503 10507 10512 10523 10530 10533 10534 10537 10541 10545 10548 10551 10553 10554 10562 10563 10566 10569 10572 10576 10581 10585 10589 10593 10597 10597 10597 10601 10608 10614
10406 10408 10410 10414 10418 10423 10428 10434 10439 10445 10452 10460 10466 10472 10478 10484 10494 10500 10504 10506 10513 10517 10520 10522 10526 10527 10533 10545 10541 10544 10547 10550 10552 10558 10564 10567 10567 10569 10573 10577 10579 10582 10591
10371 10375 10378 10382 10386 10389 10395 10400 10408 10415 10421 10427 10433 10439 10448 10457 10463 10470 10475 10478 10482 10490 10492 10494 10497 10503 10506 10509 10514 10520 10523 10524 10530 10534 10536 10539 10542 10545 10547 10550 10555 10559 10563
10336 10340 10344 10349 10353 10358 10362 10368 10374 10381 10389 10394 10401 10408 10415 10423 10428 10436 10443 10449 10454 10460 10464 10465 10469 10473 10478 10481 10483 10489 10495 10499 10500 10500 10505 10510 10514 10516 10519 10521 10525 10531 10537
10298 10304 10309 10313 10318 10324 10330 10337 10343 10349 10355 10361 10368 10375 10382 10389 10395 10402 10409 10416 10423 10428 10433 10437 10440 10444 10448 10450 10453 10458 10463 10469 10472 10474 10478 10481 10484 10486 10489 10493 10496 10499 10505
10266 10269 10273 10278 10283 10290 10297 10302 10309 10316 10322 10328 10335 10342 10349 10355 10362 10368 10373 10380 10387 10393 10399 10403 10408 10412 10416 10419 10422 10426 10430 10434 10439 10443 10446 10448 10451 10454 10457 10461 10464 10467 10472
10236 10239 10241 10245 10251 10257 10263 10270 10276 10283 10290 10296 10302 10308 10314 10320 10325 10331 10337 10343 10348 10355 10362 10367 10373 10377 10382 10385 10387 10391 10394 10398 10403 10408 10413 10416 10418 10420 10423 10426 10431 10431 10437
10206 10208 10212 10216 10222 10226 10233 10240 10245 10251 10257 10263 10268 10275 10281 10287 10291 10297 10301 10306 10312 10317 10324 10330 10336 10341 10345 10349 10352 10354 10357 10362 10365 10370 10375 10380 10384 10387 10389 10390 10393 10396 10400
10176 10180 10184 10187 10191 10197 10203 10209 10215 10220 10225 10230 10235 10241 10246 10251 10256 10261 10266 10270 10276 10280 10285 10291 10296 10301 10305 10310 10313 10316 10319 10322 10326 10330 10334 10340 10345 10348 10353 10354 10357 10360 10364
10150 10152 10155 10160 10165 10169 10174 10179 10183 10187 10192 10198 10203 10208 10212 10217 10221 10226 10230 10234 10238 10242 10246 10251 10255 10260 10265 10268 10272 10276 10279 10283 10287 10290 10293 10296 10302 10307 10311 10316 10318 10322 10327
10125 10129 10131 10133 10137 10141 10145 10150 10155 10159 10163 10167 10172 10176 10180 10183 10187 10192 10195 10199 10202 10205 10209 10213 10216 10220 10223 10226 10230 10235 10237 10240 10243 10246 10250 10253 10257 10262 10266 10271 10276 10281 10284
10104 10107 10109 10111 10114 10117 10121 10124 10127 10131 10135 10139 10142 10145 10149 10151 10153 10156 10159 10161 10163 10165 10169 10172 10175 10178 10181 10185 10188 10193 10197 10199 10202 10204 10206 10210 10212 10217 10221 10226 10231 10235 10239
10086 10087 10089 10091 10093 10096 10099 10101 10102 10104 10108 10110 10113 10117 10119 10121 10121 10123 10125 10126 10128 10130 10132 10135 10137 10139 10142 10144 10146 10149 10153 10157 10161 10164 10165 10167 10168 10170 10175 10179 10182 10186 10189
10070 10072 10074 10076 10077 10077 10078 10079 10080 10081 10083 10085 10086 10088 10089 10089 10091 10093 10094 10095 10096 10098 10100 10102 10102 10102 10105 10107 10109 10110 10111 10113 10115 10119 10121 10123 10124 10124 10125 10129 10133 10138 10142
10056 10056 10056 10057 10058 10058 10059 10059 10060 10060 10060 10060 10060 10061 10062 10063 10063 10064 10065 10064 10064 10064 10065 10066 10065 10065 10066 10066 10067 10067 10068 10069 10069 10072 10075 10077 10079 10080 10082 10083 10085 10089 10094
10043 10043 10043 10042 10041 10041 10042 10042 10042 10042 10041 10040 10040 10039 10039 10038 10038 10037 10036 10036 10036 10035 10034 10034 10033 10031 10030 10030 10029 10030 10030 10030 10031 10031 10033 10035 10037 10039 10042 10044 10044 10047 10051
10032 10032 10031 10031 10030 10029 10028 10026 10025 10023 10022 10020 10019 10017 10015 10013 10011 10010 10008 10006 10005 10003 10002 10001 10000 9999 9998 9997 9995 9996 9996 9997 9997 9996 9997 9999 9999 9999 10001 10004 10005 10008 10012
10021 10020 10018 10017 10015 10012 10010 10007 10004 10001 9999 9997 9995 9992 9990 9987 9984 9983 9981 9979 9978 9976 9973 9971 9969 9968 9967 9965 9963 9961 9961 9962 9963 9963 9963 9963 9964 9965 9967 9969 9970 9973 9975
10008 10007 10004 10002 10000 9998 9995 9992 9988 9985 9982 9978 9975 9972 9969 9965 9962 9960 9957 9954 9952 9950 9947 9943 9940 9940 9938 9936 9935 9933 9931 9930 9931 9930 9932 9932 9931 9932 9934 9936 9937 9940 9943